Wind_Speed
42 41 43 45 43 42 43 44 48 49 50 50 51 54 54 55 55 56 56 56 57 57 57 57 58 58 59 59 60 62 63 63 65 66 66 66 66 67 67 68 67 66 65 66
46 45 47 49 44 43 45 47 49 51 52 50 54 56 57 58 58 58 58 58 58 58 58 59 59 60 60 60 61 63 63 64 65 65 65 66 66 67 67 66 65 64 64 65
51 50 52 50 45 46 48 48 50 52 54 55 57 57 58 59 59 60 60 60 60 59 60 61 61 61 61 62 63 64 64 64 65 65 65 65 65 64 63 63 63 62 63 64
54 54 55 51 49 49 51 51 52 54 55 57 58 58 59 60 60 61 61 61 60 60 61 61 61 62 62 62 63 63 63 64 64 63 63 62 62 61 61 60 59 60 60 60
55 56 56 52 51 53 55 54 53 56 58 59 59 59 59 60 61 62 62 62 62 62 61 60 60 60 60 61 61 61 61 61 60 60 60 59 59 58 58 58 57 57 57 58
52 55 56 53 53 54 55 56 56 57 58 59 59 60 58 59 60 61 61 61 61 60 59 58 58 59 59 59 58 58 58 58 57 57 57 57 57 56 56 55 55 55 55 55
51 53 52 52 53 54 55 56 57 58 59 60 60 61 60 58 57 57 57 57 57 58 58 58 58 58 57 56 56 56 55 55 55 56 56 56 55 54 54 53 54 53 53 52
49 50 51 51 53 53 55 56 57 58 58 59 58 58 57 56 54 53 53 54 55 54 54 54 55 55 55 55 55 54 54 53 53 53 53 53 53 52 52 52 53 51 50 50
47 48 48 50 52 53 54 55 55 55 55 55 54 54 53 52 51 50 50 50 50 50 50 51 53 54 54 53 52 51 51 50 51 51 50 50 50 50 50 50 49 48 47 47
47 47 47 49 50 50 51 51 51 52 52 52 52 51 50 49 49 49 49 49 49 49 50 51 52 51 51 51 51 51 52 52 52 52 52 52 51 50 50 50 47 45 45 45
48 48 48 47 48 48 49 49 49 50 50 50 49 49 48 48 48 48 48 48 49 50 50 50 49 50 51 53 53 53 53 53 53 53 53 52 52 51 50 49 47 45 44 44
49 49 51 49 49 50 50 50 50 49 49 49 49 49 49 49 49 48 49 49 50 50 50 50 51 52 53 54 54 54 55 55 55 54 54 53 52 51 49 48 45 43 43 43
51 51 52 51 51 51 51 51 51 51 50 49 49 50 50 50 50 51 51 51 52 52 52 53 53 54 55 56 56 56 56 57 57 56 55 53 51 50 49 46 44 42 42 41
54 54 53 53 53 53 52 52 51 51 51 51 51 51 51 51 52 52 53 53 53 54 55 55 56 56 57 57 57 58 59 60 59 58 56 53 51 50 48 46 43 41 40 39
56 56 55 54 54 54 53 52 51 51 51 51 52 52 53 53 53 53 54 55 55 55 56 57 57 58 59 59 60 60 61 60 59 58 56 53 51 50 47 45 42 40 38 38
57 56 56 55 54 53 53 52 52 52 52 52 53 53 54 54 54 55 56 57 56 56 57 58 58 59 60 61 62 62 61 60 59 57 54 52 50 48 45 42 40 38 36 36
56 55 54 53 53 53 53 53 53 53 53 53 53 54 54 53 54 55 55 55 56 57 58 58 59 60 61 62 62 61 60 58 58 54 52 50 47 45 42 39 37 35 33 33
54 53 53 53 53 53 53 53 53 52 53 53 53 54 54 54 54 54 54 54 55 56 57 58 59 60 61 61 60 58 58 56 55 52 49 46 43 41 39 36 33 31 30 30
51 51 51 51 52 52 52 52 52 52 52 52 52 52 52 53 53 53 53 54 55 55 55 57 58 59 58 57 57 56 56 55 53 49 46 42 39 36 33 31 29 27 26 27
49 48 49 49 50 50 50 50 50 50 50 51 51 51 51 52 52 52 52 52 54 55 55 56 57 57 56 55 55 54 54 52 49 45 41 37 33 30 28 26 24 23 24 25
46 47 47 48 49 49 49 50 49 49 49 49 49 49 49 49 49 49 50 50 51 53 54 55 55 54 53 53 53 52 50 47 44 40 36 31 28 25 24 22 21 21 22 23
45 46 46 47 48 47 47 48 48 48 48 48 48 48 48 47 47 47 48 50 50 51 52 52 52 51 52 51 50 47 44 42 39 34 29 26 23 21 20 20 19 19 19 20
45 45 46 46 46 46 46 46 46 46 46 46 46 46 46 45 45 46 46 47 49 50 50 50 50 50 50 49 46 43 40 36 33 29 25 22 19 18 18 17 16 16 16 17
44 44 44 44 44 44 44 43 44 43 43 43 43 43 43 43 43 45 46 47 48 48 48 48 48 48 47 45 42 38 34 31 28 26 22 18 17 15 14 14 13 13 14 15
42 42 42 42 42 42 41 41 40 40 40 40 40 41 42 42 43 44 45 45 46 46 46 45 44 44 42 40 37 34 31 28 25 21 18 15 13 11 11 11 11 11 11 13
42 41 41 41 41 41 40 39 38 38 38 38 38 39 40 41 42 43 44 44 44 44 43 42 42 41 39 36 33 31 28 24 21 17 14 12 10 9 8 8 8 9 10 11
42 42 42 41 41 41 40 39 38 38 38 38 37 37 38 39 40 41 42 42 42 41 40 40 39 38 35 32 29 27 23 20 16 12 10 9 7 7 7 7 7 7 8 10
Wind_Direction
290 291 290 290 292 294 295 294 294 295 295 297 295 294 295 296 297 298 299 299 300 300 300 300 299 299 298 298 298 298 299 299 300 301 302 304 305 306 308 310 311 312 314 315
289 289 288 289 293 295 293 293 293 293 293 294 293 294 295 297 298 299 299 300 300 301 301 300 300 300 299 298 298 298 298 299 301 302 304 305 306 307 309 311 312 313 314 315
289 289 288 289 293 291 291 291 291 292 293 292 293 294 296 297 297 298 299 301 301 302 302 302 301 300 299 299 299 300 300 301 301 302 304 305 307 308 309 310 311 313 313 314
290 291 290 294 295 294 292 292 292 292 292 293 294 296 297 298 299 301 302 302 302 302 301 301 301 300 301 301 302 302 301 301 302 303 304 305 306 307 309 310 311 313 313 314
291 292 294 297 297 295 294 294 294 294 293 294 295 296 297 300 301 302 302 302 301 301 301 301 301 301 302 303 304 304 304 304 304 305 306 306 307 308 309 309 310 311 313 314
290 292 295 299 298 297 296 296 296 295 295 296 297 298 300 300 299 300 300 300 301 301 302 303 303 303 304 304 305 305 306 306 306 306 307 307 307 308 309 310 311 311 313 314
295 296 298 300 298 297 296 297 295 295 296 297 297 299 301 302 302 302 302 302 302 302 303 303 303 304 305 305 305 306 307 307 307 307 307 307 308 309 310 310 311 312 313 314
298 298 300 299 297 296 295 294 294 295 295 297 298 300 301 302 302 302 302 303 303 304 305 305 305 305 306 306 306 307 308 308 309 310 310 310 310 310 311 311 312 312 312 313
300 301 301 299 297 296 296 297 297 297 298 299 300 302 303 304 305 305 305 305 306 306 306 306 306 306 307 307 308 309 310 310 310 311 312 312 312 312 312 313 313 312 312 313
299 301 300 299 298 298 298 299 299 300 301 301 302 303 304 305 306 306 307 307 308 308 307 307 307 308 308 309 309 309 309 309 310 310 311 311 312 313 313 313 312 311 311 312
298 298 297 298 299 299 299 299 300 300 300 300 301 303 304 305 306 307 308 308 308 309 309 308 309 309 309 309 309 309 308 308 308 308 309 310 310 311 312 313 312 311 310 312
296 296 296 297 297 297 298 298 299 299 298 299 299 301 303 305 306 307 307 308 309 309 309 309 308 309 309 309 309 309 309 308 307 306 307 308 308 309 310 311 311 310 309 309
292 292 294 295 295 296 296 297 297 297 298 298 299 300 302 303 304 305 306 307 308 309 308 308 308 308 308 308 308 307 307 307 307 306 304 305 305 307 308 309 309 309 308 309
289 290 290 291 292 293 294 295 295 296 297 298 299 300 301 302 304 305 306 307 308 308 308 308 308 308 308 308 307 307 306 306 305 304 303 302 302 303 305 306 307 307 306 307
287 288 289 289 290 292 293 294 295 295 296 297 298 299 300 302 304 305 305 306 306 307 307 307 308 308 308 308 308 308 308 307 304 303 301 299 298 299 300 301 303 303 303 304
285 286 287 288 289 290 291 293 294 294 295 296 297 299 300 302 303 304 305 305 306 306 307 307 308 308 308 308 308 308 307 306 305 302 300 297 296 296 296 297 299 299 299 301
284 285 286 286 287 288 290 291 293 294 295 296 297 298 300 301 302 304 304 305 306 307 307 308 309 310 309 309 309 309 309 307 306 304 301 298 295 294 292 292 294 295 295 297
282 283 284 285 287 288 289 291 292 293 295 296 297 299 300 301 302 303 304 305 306 307 308 309 310 311 311 310 310 310 310 309 308 304 301 298 294 292 290 288 289 290 291 294
283 284 284 285 286 287 289 290 291 293 295 297 298 300 301 302 302 304 305 307 307 308 309 310 311 312 312 312 312 312 311 310 309 305 301 298 293 288 286 284 283 284 287 292
283 283 284 285 286 287 289 290 292 293 295 298 300 301 303 303 304 305 306 308 309 309 310 311 312 313 313 312 313 312 312 310 309 306 301 296 290 286 281 279 278 280 284 291
283 284 285 286 287 288 290 292 294 295 297 299 301 302 303 304 305 306 308 309 310 311 312 313 314 314 315 315 315 314 313 311 310 306 301 294 287 281 276 274 274 277 283 290
284 285 286 287 288 290 292 293 294 296 298 300 301 302 304 305 306 308 310 311 312 313 314 315 316 316 317 317 317 316 315 314 312 309 301 293 286 277 272 271 271 276 282 289
286 286 287 288 290 291 292 294 295 297 298 299 301 302 303 305 306 309 311 312 313 315 316 317 317 318 319 318 318 316 316 315 313 311 305 296 286 277 270 267 268 274 282 289
286 287 288 290 291 292 294 295 296 297 298 300 302 303 304 306 308 311 312 313 315 316 317 318 319 320 320 320 319 318 318 316 313 311 306 296 287 277 266 261 264 272 282 291
286 288 289 290 291 292 294 295 296 297 298 300 302 303 305 307 309 312 313 315 316 318 319 320 321 322 322 322 322 321 319 317 314 310 305 296 285 273 261 257 262 275 286 294
286 288 289 291 292 293 295 295 295 296 298 300 302 303 304 306 309 312 314 316 317 319 320 321 322 323 323 323 322 322 320 319 317 311 303 292 279 267 256 254 264 280 290 299
286 288 289 291 293 294 295 295 296 297 298 300 302 302 304 306 309 312 314 316 317 318 319 321 322 324 325 325 325 325 324 322 319 314 306 294 279 264 253 255 271 285 295 305
Height
5775 5773 5768 5764 5764 5761 5756 5752 5746 5743 5739 5737 5730 5725 5721 5717 5713 5709 5705 5700 5695 5690 5684 5679 5673 5667 5661 5654 5648 5641 5634 5627 5620 5613 5605 5598 5590 5582 5574 5565 5556 5547 5538 5528
5764 5763 5757 5754 5756 5752 5747 5742 5736 5732 5729 5727 5719 5714 5710 5705 5700 5696 5691 5686 5681 5676 5671 5665 5659 5653 5646 5640 5633 5626 5619 5613 5605 5598 5591 5584 5576 5568 5560 5551 5543 5534 5525 5516
5751 5750 5746 5745 5748 5742 5737 5732 5726 5720 5718 5712 5708 5703 5698 5693 5688 5683 5678 5673 5668 5662 5657 5651 5644 5638 5631 5625 5618 5611 5605 5598 5590 5583 5577 5569 5562 5554 5546 5538 5530 5521 5512 5503
5738 5736 5731 5737 5733 5729 5723 5720 5715 5708 5704 5699 5695 5691 5685 5679 5674 5669 5664 5659 5653 5648 5642 5637 5630 5623 5616 5610 5603 5597 5590 5582 5575 5569 5562 5555 5548 5540 5533 5525 5517 5509 5500 5491
5727 5721 5718 5722 5721 5713 5708 5706 5702 5694 5689 5685 5681 5677 5673 5667 5661 5655 5650 5644 5639 5633 5627 5622 5615 5608 5602 5596 5589 5582 5575 5568 5561 5554 5548 5541 5534 5527 5519 5512 5504 5496 5488 5479
5717 5710 5707 5711 5705 5699 5694 5691 5686 5679 5674 5670 5666 5662 5661 5656 5649 5643 5638 5631 5625 5619 5613 5607 5600 5594 5588 5581 5575 5568 5561 5554 5548 5541 5534 5528 5521 5514 5507 5499 5492 5484 5476 5467
5705 5699 5696 5698 5692 5686 5681 5678 5671 5666 5661 5657 5652 5648 5644 5640 5635 5629 5623 5617 5611 5605 5599 5593 5586 5580 5574 5567 5561 5554 5548 5541 5534 5527 5521 5514 5508 5501 5494 5487 5480 5472 5464 5456
5694 5688 5687 5683 5677 5672 5668 5663 5658 5653 5648 5643 5639 5635 5630 5626 5620 5615 5609 5603 5597 5591 5586 5579 5572 5566 5560 5554 5548 5542 5535 5528 5522 5515 5508 5501 5495 5488 5481 5474 5467 5460 5452 5445
5684 5682 5677 5670 5664 5659 5654 5650 5645 5640 5636 5631 5627 5623 5618 5613 5608 5602 5596 5590 5584 5578 5573 5567 5559 5553 5547 5541 5535 5529 5523 5516 5509 5503 5496 5489 5482 5476 5469 5462 5455 5448 5441 5434
5673 5671 5665 5659 5652 5648 5643 5638 5633 5628 5624 5619 5614 5610 5605 5601 5595 5590 5584 5578 5572 5566 5561 5555 5547 5540 5533 5528 5522 5516 5510 5503 5497 5490 5484 5477 5471 5464 5457 5450 5443 5437 5430 5424
5661 5658 5653 5649 5642 5637 5632 5627 5622 5617 5612 5607 5602 5598 5593 5589 5583 5578 5572 5566 5560 5554 5548 5542 5535 5529 5522 5515 5509 5503 5497 5490 5483 5477 5471 5464 5458 5452 5445 5439 5432 5426 5420 5414
5649 5645 5639 5638 5631 5626 5621 5616 5611 5606 5601 5596 5591 5587 5582 5577 5571 5566 5560 5554 5548 5542 5536 5530 5523 5517 5509 5503 5496 5489 5483 5476 5470 5463 5457 5451 5445 5439 5433 5427 5421 5415 5409 5404
5635 5631 5627 5623 5619 5614 5609 5604 5600 5595 5590 5585 5580 5575 5570 5565 5560 5554 5548 5542 5536 5530 5523 5517 5510 5503 5496 5489 5482 5475 5469 5462 5456 5449 5443 5437 5431 5426 5421 5415 5410 5404 5399 5393
5621 5618 5614 5610 5606 5601 5596 5592 5587 5583 5578 5573 5568 5563 5558 5553 5547 5541 5535 5528 5522 5516 5510 5503 5497 5489 5482 5475 5468 5461 5454 5446 5440 5434 5427 5422 5417 5413 5409 5404 5399 5394 5389 5384
5607 5603 5599 5596 5592 5587 5583 5579 5575 5570 5565 5561 5555 5550 5545 5540 5534 5528 5522 5515 5509 5503 5496 5489 5482 5475 5467 5460 5453 5445 5437 5430 5423 5417 5411 5406 5402 5398 5395 5391 5387 5383 5379 5374
5592 5588 5584 5581 5577 5573 5569 5565 5561 5557 5552 5548 5543 5538 5532 5527 5521 5515 5508 5501 5495 5489 5481 5474 5467 5460 5452 5444 5437 5429 5421 5413 5406 5400 5394 5390 5386 5383 5381 5378 5375 5372 5369 5365
5576 5573 5570 5567 5563 5559 5555 5551 5547 5543 5539 5534 5529 5524 5519 5514 5508 5502 5495 5488 5481 5473 5466 5459 5452 5444 5436 5428 5420 5412 5404 5396 5388 5382 5377 5373 5370 5368 5366 5365 5363 5361 5359 5356
5560 5557 5555 5552 5548 5545 5541 5537 5533 5529 5525 5520 5516 5510 5505 5499 5494 5488 5481 5475 5468 5460 5452 5444 5436 5429 5420 5411 5403 5395 5387 5379 5372 5366 5361 5357 5354 5353 5352 5351 5351 5350 5349 5347
5545 5543 5540 5536 5533 5530 5527 5523 5519 5515 5511 5506 5502 5497 5491 5485 5478 5473 5467 5460 5453 5447 5440 5431 5422 5414 5405 5396 5388 5380 5372 5364 5357 5350 5345 5342 5339 5339 5339 5339 5340 5340 5340 5338
5530 5528 5525 5522 5519 5515 5512 5509 5505 5502 5497 5492 5488 5483 5477 5471 5465 5459 5453 5446 5438 5431 5425 5417 5408 5400 5391 5383 5374 5366 5358 5350 5342 5336 5331 5328 5327 5327 5328 5329 5330 5331 5332 5330
5517 5514 5511 5508 5505 5502 5498 5494 5491 5488 5484 5479 5473 5468 5463 5458 5452 5445 5439 5434 5427 5418 5411 5402 5394 5385 5377 5369 5360 5352 5344 5336 5329 5324 5320 5318 5317 5318 5319 5321 5323 5324 5324 5323
5503 5500 5497 5494 5491 5489 5485 5481 5477 5474 5470 5465 5460 5455 5450 5445 5439 5433 5427 5420 5414 5406 5398 5390 5381 5373 5364 5356 5348 5340 5332 5326 5320 5315 5312 5310 5310 5311 5313 5314 5316 5317 5317 5317
5489 5486 5483 5480 5478 5475 5472 5468 5464 5460 5457 5452 5447 5442 5437 5432 5427 5421 5417 5409 5402 5394 5386 5378 5370 5361 5353 5345 5337 5330 5323 5317 5312 5309 5306 5305 5304 5305 5307 5308 5310 5311 5311 5311
5475 5472 5470 5467 5464 5461 5458 5455 5451 5448 5444 5439 5434 5429 5424 5420 5416 5410 5403 5398 5390 5383 5375 5367 5359 5351 5343 5335 5328 5322 5316 5311 5307 5304 5301 5300 5299 5300 5301 5303 5305 5306 5306 5306
5462 5459 5457 5453 5451 5448 5445 5442 5439 5435 5431 5428 5423 5418 5413 5408 5404 5399 5393 5387 5380 5372 5365 5358 5350 5342 5334 5327 5321 5315 5310 5305 5302 5299 5297 5296 5296 5296 5298 5299 5301 5302 5302 5302
5449 5446 5443 5440 5437 5434 5432 5429 5426 5423 5419 5416 5412 5407 5403 5398 5393 5388 5382 5376 5370 5363 5356 5349 5342 5335 5327 5321 5315 5309 5304 5301 5297 5295 5294 5293 5293 5294 5295 5296 5298 5299 5299 5299
5436 5433 5430 5428 5425 5422 5419 5416 5413 5410 5407 5404 5401 5397 5392 5388 5383 5377 5372 5366 5360 5354 5348 5341 5334 5328 5322 5316 5310 5305 5301 5297 5294 5293 5292 5292 5292 5292 5293 5294 5295 5296 5297 5296